Regional Weather Roundup
Issued by NWS

Home | Current Version | Previous Version | Graphics & Text | Print | Product List | Glossary On
Versions: 1 2 3 4 5 6 7 8 9 10 11 12 13 14 15 16 17 18 19 20 21 22 23 24 25 26 27 28 29 30 31 32 33 34 35 36 37 38 39 40 41 42 43 44 45 46 47 48 49 50
000
ASUS43 KMKX 031107
RWRWI

WISCONSIN REGIONAL WEATHER ROUNDUP
NATIONAL WEATHER SERVICE MILWAUKEE/SULLIVAN WI
600 AM CDT WED JUN 03 2015

NOTE: "FAIR" INDICATES FEW OR NO CLOUDS BELOW 12,000 FEET WITH NO
SIGNIFICANT WEATHER AND/OR OBSTRUCTIONS TO VISIBILITY.

WIZ001-002-006>008-014>016-023>028-031200-
NORTHWEST WISCONSIN

CITY           SKY/WX    TMP DP  RH WIND       PRES   REMARKS
SUPERIOR ARPT  CLOUDY    47  41  80 NE5       29.88R
ASHLAND        CLOUDY    62  50  64 S7        29.91R
HAYWARD        CLOUDY    61  51  70 S9        29.93S
SIREN          CLOUDY    63  53  69 S9        29.89F
CUMBERLAND     CLOUDY    57  50  77 S10       29.93S
RICE LAKE      CLOUDY    58  50  73 SE8       29.95S
CHETEK         CLOUDY    56  50  80 SE7       29.95R
LADYSMITH      MOCLDY    55  48  76 SE6       29.99S
EAU CLAIRE     NOT AVBL
MENOMONIE      CLOUDY    59  53  80 E7        29.95R
NEW RICHMOND   CLOUDY    61  53  75 S10       29.92S
OSCEOLA        CLOUDY    63  55  74 S9        29.93S
$$

WIZ003>005-009-010-017-018-031200-
NORTH CENTRAL WISCONSIN

CITY           SKY/WX    TMP DP  RH WIND       PRES   REMARKS
MANITOWISH WTR MOCLDY    54  46  75 S8        29.98S
ARBOR VITAE    PTCLDY    55  46  74 S7        30.00S
WOODRUFF       PTCLDY    55  46  74 S7        30.00S
RHINELANDER    CLEAR     49  44  83 CALM      30.02R
EAGLE RIVER    PTCLDY    50  42  72 S3        30.00F
LAND O LAKES   PTCLDY    51  44  75 S3        30.00F
PHILLIPS       PTCLDY    53  46  77 S9        29.98S
TOMAHAWK       CLEAR     46  44  90 CALM      30.01S
MEDFORD        CLEAR     50  46  87 S6        30.01R
MERRILL        CLEAR     52  46  82 CALM      30.02R
$$

WIZ029-030-035-036-043>047-031200-
CENTRAL WISCONSIN

CITY           SKY/WX    TMP DP  RH WIND       PRES   REMARKS
WAUSAU         CLEAR     52  45  77 SE5       30.01S
MOSINEE        CLEAR     48  46  93 SE6       30.03S
MARSHFIELD     CLEAR     51  46  83 S6        30.02R
STEVENS POINT  CLEAR     45  42  88 CALM      30.03S
WAUPACA        PTCLDY    47  45  92 CALM      30.05R
WAUTOMA        NOT AVBL
WISC RAPIDS    CLEAR     51  45  79 S5        30.04R
CAMP DOUGLAS   NOT AVBL
$$

WIZ011>013-019>022-031-037>040-048>050-031200-
NORTHEAST WISCONSIN

CITY           SKY/WX    TMP DP  RH WIND       PRES   REMARKS
ANTIGO         PTCLDY    47  44  87 S7        30.03F
SHAWANO        MOCLDY    51  45  78 S3        30.05S
OCONTO         CLEAR     51  49  92 S3        30.05S
STURGEON BAY   CLEAR     52  39  62 S13       30.09S
GREEN BAY      PTCLDY    51  46  83 S7        30.06R
MANITOWOC      NOT AVBL
APPLETON       MOCLDY    54  46  76 S8        30.05S
CLINTONVILLE   PTCLDY    45  43  93 CALM      30.04S
OSHKOSH        CLEAR     50  46  86 S7        30.05R
$$

WIZ032>034-041-042-053>061-031200-
SOUTHWEST WISCONSIN

CITY           SKY/WX    TMP DP  RH WIND       PRES   REMARKS
LA CROSSE      PTCLDY    58  52  80 E6        29.98R
SPARTA         CLEAR     49  45  88 SE3       30.01R
VIROQUA        PTCLDY    55  49  81 SE7       30.01R
BOSCOBEL       CLEAR     50  48  93 CALM      30.02R
PRAIRIE DU CHI CLEAR     55  49  80 E5        30.00S
PLATTEVILLE    PTCLDY    55  49  80 SE8       30.02S
$$

WIZ056-057-062-063-064-067-068-031200-
SOUTH CENTRAL WISCONSIN

CITY           SKY/WX    TMP DP  RH WIND       PRES   REMARKS
REEDSBURG      CLEAR     54  47  78 SE3       30.03R
BARABOO/DELLS  CLEAR     52  46  80 S5        30.03R
LONE ROCK      NOT AVBL
MINERAL POINT  CLEAR     54  48  82 SE7       30.03S
MADISON        MOCLDY    56  49  77 S7        30.05S
MIDDLETON      CLEAR     58  49  74 S8        30.04F
WATERTOWN      CLEAR     49  48  97 CALM      30.07R
MONROE         CLEAR     54  50  87 S6        30.05S
JANESVILLE     PTCLDY    52  48  87 CALM      30.06R
$$

WIZ051-052-058>065-066-070>072-031200-
SOUTHEAST WISCONSIN

CITY           SKY/WX    TMP DP  RH WIND       PRES   REMARKS
MILWAUKEE      MOCLDY    48  43  82 SE6       30.09S
WAUKESHA       PTCLDY    46  43  87 CALM      30.08S
MILWAUKEE/TIMM PTCLDY    48  41  76 CALM      30.08S
RACINE         PTCLDY    50  45  83 CALM      30.10S
BURLINGTON     PTCLDY    42  42  98 CALM      30.08R FOG
KENOSHA        PTCLDY    50  46  86 CALM      30.09R
FOND DU LAC    CLEAR     50  46  86 S9        30.05F
SHEBOYGAN      CLEAR     46  44  93 CALM      30.08S FOG
WEST BEND      PTCLDY    45  41  87 CALM      30.08R
JUNEAU         CLEAR     50  46  85 SE6       30.07S
$$

LSZ147-162-031200-
LAKE SUPERIOR

STATION/POSITION TIME  TEMP    WIND        PRES    WAVE
                       AIR SEA DIR/SP/G            HT/PER
                 (UTC) (F)     (DEG/KT/KT) (MB)    (FT/S)
W MID LAKE BUOY  0950   44 37  140/ 10/ 10   N/A     0
DEVILS ISLAND    1000          340/ 11/ 16   N/A
PORT WING        1040   47      50/  8/ 10   N/A
SAXON HARBOR     1000   64     190/  6/ 11   N/A
$$

LMZ867-665-643>646-031200-
LAKE MICHIGAN

STATION/POSITION TIME  TEMP    WIND        PRES    WAVE
                       AIR SEA DIR/SP/G            HT/PER
                 (UTC) (F)     (DEG/KT/KT) (MB)    (FT/S)
CHAMBERS ISLAND  1000   52     160/  4/  9   N/A
N MID LAKE BUOY  0950   42 37  160/  8/  8   N/A     0
NORTHPORT PIER   1000   50     160/  6/ 11   N/A
SISTER BAY       1048   51     170/ 12/ 15   N/A
ALGOMA LAKESHORE 1039          220/  8/ 10   N/A
KEWAUNEE LAKESHO 1000   51     190/  8/ 11   N/A
SHEBOYGAN LAKESH 1000   50     200/  6/  7   N/A
PORT WASHINGTON  1000   48      CALM  /  2   N/A
ATWATER BUOY     1000   51 46  160/  2/  2   N/A
MILWAUKEE LAKESH 1000   52     190/  4/  5   N/A
S MID LAKE BUOY  0950   45 38  150/  6/  6   N/A
KENOSHA   LAKESH 1000   52     170/  5/  6   N/A
$$

TC  - TEMPERATURE IN CELSIUS
VSB - VISIBILITY IN STATUTE MILES
WCI - WIND CHILL INDEX
HX  - HEAT INDEX




USA.gov is the U.S. government's official web portal to all federal, state and local government web resources and services.